View from above orbital plane
|
View from above satellite
|
Ground track
|
The orbit data is extracted from the following two-line orbital elements,
1 03338U 68066B 21016.84983126 .00000021 00000-0 11443-4 0 9994
2 03338 80.6623 158.0528 1132291 27.7026 337.9922 12.22879686336587
Epoch (UTC): | 16 January 2021 20:23:45 |
Eccentricity: | 0.1132291 |
inclination: | 80.6623° |
perigee height: | 679 km |
apogee height: | 2481 km |
right ascension of ascending node: | 158.0528° |
argument of perigee: | 27.7026° |
revolutions per day: | 12.22879686 |
mean anomaly at epoch: | 337.9922° |
orbit number at epoch: | 33658 |
The dashed part of the orbit path shows where the satellite is in the earth's shadow,
|
|